sat.trackr.live / text

‹ back to catalog

STARLINK-32580

NORAD 62075 · 2024-217U

PAYLOAD ACTIVE UNKNOWN

§ Identity

Operator
Country
US
Launch date
2024-11-24
Launch site
AFWTR
Launch vehicle
Mass (kg)
RCS (m²)

Purposes: comms

External: N2YO · Heavens-Above · Gunter

§ Orbital elements

Epoch: 2026-05-25T01:46:44.095008Z

Period
94.10 min
Inclination
53.1566°
Eccentricity
0.0001367
Mean motion
15.30208094 rev/d
Perigee alt
474.3 km
Apogee alt
476.1 km
Semi-major
6,853.3 km
B*
4.3662e-4
RAAN
186.4941°
Arg perigee
82.3938°
Mean anomaly
277.7218°
Rev number
8,529

§ Raw data

STARLINK-325801 62075U 24217U   26145.07412147  .00012597  00000+0  43662-3 0  99972 62075  53.1566 186.4941 0001367  82.3938 277.7218 15.30208094 85291

JSON: /api/v1/satellites/62075 · /tle

For live sub-satellite position, see the globe view (requires WebGL).

§ Visibility from observer

Set your observer location to see the next 7 days of passes ≥ 10°. The values pass through the URL so the page stays shareable.

No JS? Fill the form by hand. The geolocation button needs JavaScript.